User: anonymous   Login
Location: Mentone
(34.5413°N, 85.5351°W)
Time: 20:52:27
(UTC-05:00)
Language:

Uosat F - Orbit

View from above orbital plane
View from above orbital plane
View from above satellite
View from above satellite

Ground track
Ground track

The orbit data is extracted from the following two-line orbital elements,

1 21575U 91050B   17172.66427185 +.00000022 +00000-0 +21412-4 0  9990
2 21575 098.7566 189.1775 0006194 290.4572 069.5950 14.40801430361920
Epoch (UTC): 21 June 2017 15:56:33
Eccentricity: 0.0006194
inclination: 98.7566°
perigee height: 751 km
apogee height: 760 km
right ascension of ascending node: 189.1775°
argument of perigee: 290.4572°
revolutions per day: 14.40801430
mean anomaly at epoch: 69.5950°
orbit number at epoch: 36192

The dashed part of the orbit path shows where the satellite is in the earth's shadow,  

DLR